Overview Statistics Trail Chart Weather Telemetry Raw packets
 

This is the latest recevied weather packets stored in our database for station/object N1ORT. If no packets are shown the sender has not sent any weather packets the latest 10 day(s).

<< 11 12 13 14 15 16 17 >>
Time Temp. Humidity Pressure Rain* Wind** Luminosity Snow
1788543739 26.67° C 63% 1007.3 hPa 0 mm - 800 W/m² -
1788543434 26.67° C 65% 1007.3 hPa 0 mm - 113 W/m² -
1788543129 27.78° C 64% 1007.5 hPa 0 mm - 177 W/m² -
1788542826 27.22° C 65% 1007.2 hPa 0 mm - 811 W/m² -
1788542525 27.22° C 68% 1007.5 hPa 0 mm - 811 W/m² -
1788542220 25.56° C 70% 1007.5 hPa 0 mm - 830 W/m² -
1788541915 26.11° C 68% 1007.6 hPa 0 mm - 88 W/m² -
1788541611 27.78° C 62% 1007.6 hPa 0 mm - 202 W/m² -
1788541307 27.78° C 62% 1007.6 hPa 0 mm - 876 W/m² -
1788541005 27.78° C 62% 1007.5 hPa 0 mm - 853 W/m² -
1788540705 27.22° C 68% 1007.4 hPa 0 mm - 876 W/m² -
1788540400 26.67° C 65% 1007.7 hPa 0 mm - 815 W/m² -
1788540095 26.67° C 66% 1007.6 hPa 0 mm - 894 W/m² -
1788539790 26.67° C 64% 1007.7 hPa 0 mm - 894 W/m² -
1788539486 27.22° C 65% 1007.6 hPa 0 mm - 783 W/m² -
1788539179 26.67° C 70% 1007.6 hPa 0 mm - 902 W/m² -
1788538874 26.67° C 69% 1007.5 hPa 0 mm - 867 W/m² -
1788538565 26.11° C 72% 1007.7 hPa 0 mm - 825 W/m² -
1788538259 26.67° C 69% 1007.7 hPa 0 mm - 890 W/m² -
1788537955 26.11° C 71% 1007.8 hPa 0 mm - 196 W/m² -
1788537651 26.67° C 70% 1008.1 hPa 0 mm - 802 W/m² -
1788537350 26.67° C 74% 1007.9 hPa 0 mm - 822 W/m² -
1788537045 26.11° C 70% 1008.1 hPa 0 mm - 841 W/m² -
1788536746 26.11° C 71% 1008 hPa 0 mm - 839 W/m² -
1788536433 25.56° C 74% 1007.9 hPa 0 mm - 802 W/m² -

* Rain latest hour (hover to see other rain measurements)
** Current wind speed in m/s (hover to see current wind gust speed)